Hourly Weather Roundup
Issued by NWS Central Illinois

Home | Current Version | Previous Version | Text Only | Print | Product List | Glossary On
Versions: 1 2 3 4 5 6 7 8 9 10 11 12 13 14 15 16 17 18 19 20 21 22 23 24 25 26 27 28 29 30 31 32 33 34 35 36 37 38 39 40 41 42 43 44 45 46 47 48 49 50
000
NZUS43 KILX 290510
HWRILX

AREA WEATHER ROUNDUP
NATIONAL WEATHER SERVICE, LINCOLN IL
1200 AM CDT WED MAR 29 2017


CITY           SKY/WX    TMP DP  RH WIND       PRES   REMARKS
BLOOMINGTON    CLOUDY    41  37  87 NE15      30.17F WCI  33
CHAMPAIGN      CLOUDY    44  38  79 NE9       30.15F
DECATUR        CLOUDY    45  39  79 E13       30.15F
EFFINGHAM      CLOUDY    49  45  85 NE6       30.14F
FLORA          CLEAR     53  47  81 NE7       30.12S
GALESBURG      CLOUDY    42  39  90 E3        30.15F
JACKSONVILLE   CLOUDY    48  44  86 NE14      30.12F
LACON          PTCLDY    40  38  93 E8        30.18F WCI  34
LAWRENCEVILLE  CLEAR     51  47  86 NE7       30.12S
LITCHFIELD     CLOUDY    49  44  84 NE10      30.09F
$$


CITY           SKY/WX    TMP DP  RH WIND       PRES   REMARKS
LINCOLN        PTCLDY    44  42  91 E7        30.16F
MACOMB         CLOUDY    46  43  90 E9        30.16F
MATTOON        PTCLDY    44  41  89 NE8       30.13F
MT CARMEL AP   CLEAR     52  46  81 NE7       30.11S
OLNEY-NOBLE AP CLEAR     50  50 100 N9        30.12F
PARIS          CLOUDY    46  43  86 NE8       30.16F
PEORIA         CLOUDY    46  40  79 E10       30.16F
PONTIAC        CLOUDY    42  41  96 NE8       30.20F
RANTOUL        CLOUDY    45  42  90 NE7       30.17F
SPRINGFIELD    CLOUDY    49  43  80 E14       30.14F
TAYLORVILLE    CLOUDY    46  41  81 E14       30.13F
$$

...REGIONAL REPORTS...


CITY           SKY/WX    TMP DP  RH WIND       PRES   REMARKS
CHICAGO O`HARE FOG       36  34  92 NE9       30.23R VSB 1   WCI  29
KANKAKEE       CLOUDY    42  39  91 CALM      30.21R
MOLINE         CLOUDY    37  34  89 E3        30.17F
MOUNT STERLING CLOUDY    47  43  85 E13       30.12S
MOUNT VERNON   CLOUDY    55  47  74 NE9       30.10S
PITTSFIELD     CLOUDY    51  47  85 NE9       30.12S
QUINCY         CLOUDY    51  45  79 E10       30.11S
ROCKFORD       CLOUDY    41  35  79 E6        30.24S
$$


CITY           SKY/WX    TMP DP  RH WIND       PRES   REMARKS
BURLINGTON     CLOUDY    46  42  86 E9        30.13F
CEDAR RAPIDS   MOCLDY    39  38  96 E8        30.14F WCI  33
DES MOINES     CLOUDY    50  45  83 E5        30.13R
KIRKSVILLE     CLOUDY    50  46  86 E9        30.10R
OTTUMWA        CLOUDY    48  45  89 E13       30.11F
ST LOUIS       CLOUDY    55  46  71 E12       30.07F
$$


CITY           SKY/WX    TMP DP  RH WIND       PRES   REMARKS
TERRE HAUTE    CLOUDY    50  43  77 N6        30.14F
EVANSVILLE     CLEAR     53  50  89 NE5       30.09F
INDIANAPOLIS   CLOUDY    50  44  80 NE8       30.14F
LAFAYETTE      CLOUDY    45  43  93 NE6       30.17S
MADISON        CLEAR     40  36  86 E3        30.23R
MILWAUKEE      FOG       34  33  96 VRB5      30.25S VSB 1/4 WCI  30
$$






USA.gov is the U.S. government's official web portal to all federal, state and local government web resources and services.